Forside
METAR-TAF:

METAR-TAF

Lufthavne :

Rush City Regional Airport

Rush City, Minnesota, USA

Breddekreds: 45-41-53N, længdekreds: 092-57-11W, højde: 281 m

Aktuelle vejr

Denne rapport blev lavet for 28 minutter siden, kl. 01:23 UTC
Vind 4 kt fra sydsydøst
Temperatur 22°C
Fugtighed 69%
Tryk 1009 hPa
Sigt: 16.1 km
Spredte skyer i en højde af 7500 ft

METAR: KROS 250123Z AUTO 16004KT 10SM SCT075 22/16 A2980 RMK AO2

Tid: 20:51 (01:51 UTC)


TAF: fraværende

Vejrobservationer og prognoser fra mere end 4000 lufthavne (METAR og TAF).

De gule og røde prikker repræsenterer de meteorologiske stationer.

Flyt musen over at se navnet på stationen.

Så klik over at se vejr observationer og prognoser.

At skifte det kort: Klik på de grønne knapper med et sort kors for at zoome ind; på den grønne knap med en bindestreg for at zoome ud; eller på de grønne pile for tilstødende kort.


METAR-TAF: